sat.trackr.live / text

‹ back to catalog

STARLINK-32323

NORAD 61677 · 2024-193S

PAYLOAD ACTIVE UNKNOWN

§ Identity

Operator
Country
US
Launch date
2024-10-26
Launch site
AFETR
Launch vehicle
Mass (kg)
RCS (m²)

Purposes: comms

External: N2YO · Heavens-Above · Gunter

§ Orbital elements

Epoch: 2026-05-25T02:45:28.609344Z

Period
93.85 min
Inclination
53.1610°
Eccentricity
0.0001353
Mean motion
15.34383310 rev/d
Perigee alt
461.8 km
Apogee alt
463.7 km
Semi-major
6,840.9 km
B*
1.0735e-5
RAAN
94.8887°
Arg perigee
75.5773°
Mean anomaly
284.5380°
Rev number
8,824

§ Raw data

STARLINK-323231 61677U 24193S   26145.11491446 -.00000014  00000+0  10735-4 0  99992 61677  53.1610  94.8887 0001353  75.5773 284.5380 15.34383310 88248

JSON: /api/v1/satellites/61677 · /tle

For live sub-satellite position, see the globe view (requires WebGL).

§ Visibility from observer

Set your observer location to see the next 7 days of passes ≥ 10°. The values pass through the URL so the page stays shareable.

No JS? Fill the form by hand. The geolocation button needs JavaScript.